Other Surface Observations
Issued by NWS

Home | Current Version | Previous Version | Text Only | Print | Product List | Glossary On
Versions: 1 2 3 4 5 6 7 8 9 10 11 12 13 14 15 16 17 18 19 20 21 22 23 24 25 26 27 28 29 30 31 32 33 34 35 36 37 38 39 40 41 42 43 44 45 46 47 48 49 50
000
SXUS52 KTAE 240918
OSOTAE
OSOTAE
North Florida/South Alabama/Southwest Georgia Weather Roundup
National Weather Service Tallahassee Florida
400 AM EST MON NOV 24 2014

Note: "fair" indicates few or no clouds below 12,000 feet with no
significant weather and/or obstructions to visibility.

!FLZ017-115-028-034-025-241000
...North Florida...

CITY           SKY/WX    TMP DP  RH WIND       PRES   REMARKS
TALLAHASSEE    CLOUDY    72  68  87 S9          N/A  FOG
APALACHICOLA   FOG       72  69  90 S14       29.80F VSB 1/2
PERRY          CLOUDY    71  71  99 S12       29.85F FOG
CROSS CITY       N/A     73  70  90 S10       29.87S
JACKSONVILLE   MOCLDY    73  72  96 S8        29.88R
$$

!FLZ112-006-005-002-011-241000
...Florida Panhandle...

CITY           SKY/WX    TMP DP  RH WIND       PRES   REMARKS
MARIANNA       CLOUDY    66  66 100 S7        29.78F
BONIFAY        TSTM      65  65 100 MISG      29.79S FOG
PANAMA CITY NW CLOUDY    69  67  93 SE12      29.76F
TYNDALL AFB    MOCLDY    70  70 100 S15       29.78S
TYND DRONE APT PTSUNNY   70  70 100 MISG      29.77F FOG
DE FUNIAK SPR  CLOUDY    65  64  99 CALM      29.78S
EGLIN AFB      PTCLDY    66  66 100 NW5       29.76S
DESTIN         CLOUDY   N/A N/A N/A SW7       29.76S HAZE
HURLBURT       MOCLDY    70  66  88 W7        29.76S
CRESTVIEW      CLOUDY    68  68 100 CALM      29.78R
PENSACOLA      PTCLDY    68  68 100 W8        29.76R
$$

!ALZ063-066-241000
...South Alabama...

CITY           SKY/WX    TMP DP  RH WIND       PRES   REMARKS
DOTHAN         CLOUDY    65  64  97 S6        29.83R
OZARK CAIRNS   CLOUDY    64  64 100 VRB3      29.78S
FT RUCKER HELI CLOUDY    66  64  93 S6        29.78S FOG
RUCKER HELI 3  CLOUDY    64  64 100 SW5       29.80S FOG
RUCKER HELI 2  CLOUDY    65  64  97 S5        29.81R
FLORALA APT    CLOUDY    68  66  93 VRB3      29.80R
ANDALUSIA      CLOUDY    70  64  83 CALM      29.77S
TROY           CLOUDY    66  64  93 SW7       29.78S
EUFALA         CLOUDY    66  64  94 S5        29.78S
MOBILE         CLOUDY    69  68  96 SW7G17    29.77S
$$

!GAZ120>161-241000
...Southwest and South Central Georgia...

CITY           SKY/WX    TMP DP  RH WIND       PRES   REMARKS
THOMASVILLE    CLOUDY    70  70 100 S5        29.82F FOG
BAINBRIDGE     LGT RAIN  68  66  94 S5        29.81S
MOODY AFB      CLOUDY    70  70 100 S10       29.82F
VALDOSTA       CLOUDY    71  70  96 S8        29.83F FOG
MOULTRIE       CLOUDY    68  68 100 S3        29.81F FOG
BLAKELY        CLOUDY    64  64 100 CALM      29.80S
ALBANY         CLOUDY    66  64  93 SW7       29.82F
TIFTON         CLOUDY    66  66  99 SW5       29.81F FOG
FITZGERALD     CLOUDY    68  65  91 SW6       29.84S
CORDELE        CLOUDY    68  65  92 SW6       29.81F
AMERICUS       CLOUDY    64  64 100 SW7       29.82S
HOMERVILLE     CLOUDY    73  72  94 SW8       29.85S
$$

!GMZ750-755-770-775-241000
...Coastal and Buoy Obs...

STATION/POSITION TIME  TEMP    WIND        PRES    VSBY  WAVE
                       AIR SEA DIR/SP/G                  HT/PER
                 (UTC) (F)     (DEG/KT/KT) (MB)    (MI)  (FT/S)
KEATON BEACH     0900   65     170/ 13/ 15 1011.2F
CEDAR KEY        0859   65     200/ 13/ 15 1012.3F
C TOWER          0900   71     180/ 19/ 20 1009.3F
APALACHICOLA BUO 0900   74 72  180/ 12/ 12 1010.9S         6/ 8
PANAMA CITY BUOY 0850   77 76  200/ 14/ 17 1009.7S         7/ 7
MOBILE BUOY      0838   73 72  230/ 12/ 16 1008.8F         6/ 7
ORANGE BCH AL BU 0900   71 69  230/ 10/ 10 1007.1F         5/ 8
$$



USA.gov is the U.S. government's official web portal to all federal, state and local government web resources and services.